Wind_Speed
7 7 3 7 7 4 6 6 8 8 18 16 15 12 13 11 12 9 11 12 10 10 12 12 12 12 12 13 14 15 15 16 17 17 18 19 18 18 19 20 20 20 20 19
4 3 6 7 7 6 6 7 9 12 14 18 13 13 8 3 5 9 8 11 11 10 11 10 10 11 12 13 14 16 17 17 19 18 20 20 21 20 21 22 21 22 21 21
3 10 9 8 5 6 4 10 11 15 17 10 15 3 5 4 10 8 8 7 9 10 10 11 9 9 11 12 14 16 17 17 18 19 21 20 22 22 22 23 23 23 23 23
5 8 5 5 6 8 6 7 13 15 14 3 10 5 5 9 9 5 5 6 6 8 9 11 10 10 10 11 12 13 14 16 17 19 20 21 22 23 24 26 25 25 25 24
5 7 7 8 6 7 8 11 14 10 6 6 6 4 2 7 10 9 6 5 7 8 10 11 12 11 11 11 11 13 15 16 18 20 21 21 23 24 25 26 27 27 26 26
12 10 9 7 7 7 8 9 7 7 4 2 1 8 4 1 8 14 12 9 9 9 11 12 12 11 10 10 12 15 20 22 23 24 25 26 26 26 27 28 28 27 27 26
5 4 5 4 2 2 7 9 1 1 1 1 4 7 5 12 11 11 12 12 11 11 11 13 14 13 14 15 18 22 29 32 32 32 30 30 29 29 29 29 29 28 28 27
5 5 1 1 1 1 5 7 3 1 3 5 11 2 2 11 9 8 7 11 9 11 11 13 16 19 20 21 23 32 39 35 31 32 30 29 30 30 30 29 30 30 29 28
4 4 4 4 2 1 2 2 2 1 3 4 3 4 11 6 7 10 12 11 12 13 16 18 20 21 23 28 34 40 39 32 26 26 26 26 27 27 27 29 30 31 30 30
7 3 6 5 4 3 2 1 1 2 2 3 6 5 5 7 12 7 14 16 17 18 20 24 25 28 30 36 38 38 36 28 25 24 23 24 24 23 25 29 31 33 32 32
13 8 2 4 5 4 3 2 2 1 1 1 3 3 5 12 12 8 17 26 25 24 25 29 32 35 37 41 37 34 30 25 24 22 22 24 25 25 27 28 30 31 31 32
14 7 4 7 6 8 8 7 6 2 1 4 3 9 3 7 11 20 25 26 22 25 29 30 33 35 39 36 29 27 25 23 23 23 24 25 25 27 27 27 27 28 27 28
14 8 4 3 6 10 10 9 10 8 9 12 4 7 8 13 20 22 28 30 32 31 28 28 28 30 32 32 29 27 24 23 24 24 25 25 25 24 25 25 23 22 22 23
12 12 10 3 4 6 7 10 11 14 10 10 24 27 19 21 23 25 21 19 20 24 25 24 23 24 27 26 25 25 24 24 23 23 24 24 23 24 23 23 23 21 20 20
18 14 15 16 15 18 17 19 19 23 24 20 25 27 16 16 21 15 18 23 27 27 26 27 29 30 30 29 24 22 21 22 23 24 23 23 25 24 23 23 23 22 22 21
21 13 13 18 17 20 23 25 25 27 31 34 30 24 10 18 19 16 19 26 29 28 27 28 29 29 28 26 23 21 22 23 23 23 24 24 24 24 23 23 22 23 24 25
21 18 12 5 10 15 19 21 20 24 27 23 25 15 17 24 21 18 24 30 30 28 29 30 29 29 28 26 23 23 23 23 23 24 25 26 26 25 26 26 26 26 26 27
20 19 16 6 6 5 14 15 16 20 12 18 23 17 21 23 17 21 28 32 31 34 34 30 29 29 29 27 25 24 24 23 24 26 28 28 28 29 28 28 28 28 29 28
24 22 16 9 16 17 22 18 18 20 23 21 21 26 23 21 24 25 32 33 34 35 34 33 31 30 29 28 26 25 25 26 28 29 30 32 33 32 31 31 31 31 32 34
31 29 26 17 8 9 7 9 10 17 31 22 22 15 18 24 28 31 36 39 38 35 33 33 33 32 31 30 28 27 28 30 30 32 34 35 36 36 35 34 34 34 35 36
34 36 38 31 20 17 27 21 19 18 28 15 13 19 23 28 33 37 42 44 41 37 38 36 35 36 33 33 34 33 32 33 33 36 37 38 38 38 38 38 37 38 39 40
28 27 34 35 16 21 25 24 30 28 25 17 23 25 31 36 40 44 45 44 41 43 39 38 39 38 36 36 39 38 38 35 37 40 41 41 41 42 42 42 42 43 44 44
27 36 29 32 31 24 25 27 19 17 19 25 31 33 37 43 46 47 48 46 47 47 47 45 45 44 38 37 37 38 36 39 41 44 42 42 43 44 45 46 45 45 46 45
30 29 33 33 40 40 40 36 36 32 34 35 36 41 41 44 45 48 48 50 55 57 58 53 47 49 46 42 44 46 44 41 44 47 46 44 46 47 47 48 48 47 47 47
36 33 36 43 43 38 36 41 41 36 36 40 43 42 46 45 47 50 55 57 60 62 58 52 51 53 55 54 52 51 52 49 50 50 48 47 48 48 48 47 46 47 46 47
45 45 40 47 43 41 34 31 37 40 40 38 48 51 52 55 58 56 57 54 56 57 55 57 57 56 56 57 55 52 51 54 55 54 51 47 49 48 46 46 45 46 47 47
Wind_Direction
14 60 258 241 302 287 295 309 332 295 298 316 320 322 311 287 301 298 272 276 286 286 276 280 285 286 286 288 287 290 292 292 293 293 295 296 296 298 299 301 302 303 304 304
24 284 284 297 305 307 314 332 316 303 314 324 328 320 294 256 309 319 274 275 277 284 295 296 289 289 290 288 291 292 293 294 296 299 296 298 301 298 296 297 298 300 300 299
231 264 285 301 321 333 356 281 311 316 324 324 342 22 360 333 310 299 297 274 272 284 296 304 310 301 295 293 289 294 298 301 303 304 303 304 300 299 298 295 297 297 297 298
232 271 285 307 333 325 329 309 315 319 325 316 339 314 288 327 330 328 308 284 283 289 297 303 309 304 299 299 306 304 305 309 311 308 309 308 305 305 300 300 301 300 299 298
248 283 302 305 317 316 308 324 324 329 327 1 359 340 249 351 339 3 351 314 297 295 296 297 301 298 299 304 311 314 314 314 312 309 309 306 306 303 301 300 298 298 298 299
265 285 293 303 313 324 341 346 6 3 40 270 165 11 56 77 304 320 328 319 308 301 300 296 292 291 291 301 310 317 316 310 308 304 304 303 301 299 298 300 302 300 298 297
284 289 284 279 292 19 7 23 13 321 277 140 324 326 275 305 331 321 323 325 316 312 308 305 299 290 290 297 306 312 317 310 303 299 298 297 293 291 295 299 300 301 299 299
225 279 292 228 167 10 56 57 63 196 344 318 308 246 291 315 335 340 331 322 320 314 311 318 314 301 296 298 303 313 315 314 300 295 293 292 292 290 289 296 297 297 297 298
188 251 260 245 245 343 41 71 33 295 272 296 249 320 302 305 330 353 342 332 326 317 306 306 308 307 305 301 297 305 313 314 306 296 293 295 295 292 289 291 292 294 296 296
207 249 257 256 256 260 219 341 86 66 11 302 313 307 288 309 312 337 339 328 323 316 309 305 299 298 298 302 311 312 310 308 306 301 298 299 299 298 294 291 293 292 292 291
212 209 227 220 219 224 220 220 178 297 226 317 325 289 278 282 298 314 328 321 309 297 297 297 297 299 298 307 312 307 307 306 305 304 303 303 303 300 297 296 295 292 288 289
206 207 239 243 250 245 242 224 188 200 176 229 268 282 248 306 309 308 309 311 309 303 303 299 299 298 297 303 311 307 302 300 300 302 304 305 305 304 303 302 299 294 288 286
199 207 178 239 250 239 231 216 209 229 242 239 207 257 270 292 316 316 307 305 310 319 320 316 308 308 309 308 307 303 301 298 298 300 304 306 307 309 310 309 306 302 295 294
207 207 190 195 270 238 223 244 254 247 236 250 254 292 288 305 304 303 312 323 329 326 324 321 317 317 315 313 302 299 298 300 300 302 304 306 309 310 310 309 307 304 298 299
218 231 233 240 246 262 268 270 268 259 262 250 282 282 303 301 306 309 318 326 323 321 318 315 313 313 313 310 304 298 294 297 299 301 302 305 308 309 309 309 309 306 302 298
222 242 247 251 259 261 264 263 259 269 271 269 281 281 313 309 304 300 321 326 326 322 320 316 314 315 313 311 303 296 295 296 297 297 301 304 307 310 310 309 308 307 306 302
229 235 255 257 235 252 273 273 265 265 266 274 261 303 309 308 301 290 314 322 325 325 323 319 318 317 314 310 302 297 296 295 294 295 300 304 307 308 308 307 306 304 300 297
233 228 229 226 248 235 261 256 262 267 262 259 284 289 304 297 284 292 313 322 322 322 323 318 313 311 311 308 303 300 297 294 294 296 299 301 304 307 308 309 308 305 302 300
235 232 221 217 221 261 249 247 258 268 270 273 277 292 292 272 285 300 312 319 318 318 317 313 309 308 306 304 300 297 294 292 293 295 298 302 306 309 310 312 311 308 306 303
228 225 227 212 224 224 237 256 238 246 261 283 281 279 282 279 279 304 309 316 315 313 311 308 306 304 300 298 295 294 291 289 292 293 296 299 303 305 306 309 309 308 307 305
214 217 218 223 239 254 254 254 246 243 278 291 275 288 282 281 293 299 305 311 310 306 309 303 304 306 299 290 289 290 290 291 293 291 292 295 298 300 302 304 305 306 305 306
225 214 218 224 234 258 275 256 246 287 279 285 291 293 291 296 296 299 301 302 302 304 305 298 298 303 301 291 287 288 287 292 289 289 291 292 295 296 298 299 302 305 306 305
230 238 242 238 254 267 276 279 278 252 255 282 285 288 289 292 293 294 296 295 297 299 301 301 292 297 295 290 290 287 288 287 289 289 290 289 290 292 293 294 296 297 301 302
243 247 243 249 257 263 271 274 273 271 277 282 284 286 286 293 290 290 293 292 292 294 300 297 287 286 290 289 284 283 282 284 287 287 287 286 286 288 288 289 291 295 303 304
250 249 250 258 260 261 260 276 279 280 277 279 285 289 292 293 294 292 293 294 293 294 297 293 291 289 290 293 294 285 283 282 284 288 285 283 285 285 284 284 287 293 299 300
248 248 243 254 263 270 272 266 273 282 286 287 293 293 292 293 295 292 294 294 296 297 297 295 295 293 293 295 296 296 293 288 287 287 285 281 283 281 280 282 285 292 295 298
Height
3195 3196 3196 3196 3196 3195 3195 3195 3194 3194 3191 3189 3186 3183 3183 3182 3180 3181 3182 3181 3182 3182 3182 3183 3183 3184 3184 3184 3183 3183 3183 3182 3181 3181 3180 3179 3179 3178 3177 3176 3174 3173 3171 3170
3197 3197 3197 3196 3195 3195 3194 3194 3193 3191 3189 3186 3184 3181 3179 3180 3180 3180 3180 3180 3181 3181 3180 3181 3182 3182 3182 3182 3181 3180 3180 3179 3178 3178 3177 3176 3175 3174 3173 3172 3170 3169 3167 3166
3196 3196 3195 3195 3194 3193 3193 3193 3191 3190 3186 3184 3182 3179 3179 3181 3180 3180 3179 3180 3180 3180 3180 3180 3180 3180 3180 3179 3179 3178 3177 3176 3176 3175 3173 3173 3171 3170 3169 3168 3167 3165 3164 3162
3194 3194 3194 3194 3193 3193 3191 3191 3190 3188 3186 3185 3184 3184 3180 3180 3180 3180 3179 3179 3180 3180 3179 3179 3179 3178 3178 3177 3177 3176 3175 3174 3173 3171 3170 3169 3167 3166 3164 3163 3162 3162 3160 3158
3194 3193 3193 3192 3193 3192 3192 3190 3188 3186 3185 3185 3185 3185 3181 3180 3179 3179 3179 3180 3179 3179 3179 3178 3177 3177 3176 3175 3174 3173 3173 3172 3170 3168 3167 3165 3163 3161 3159 3157 3156 3155 3154 3153
3191 3192 3192 3191 3191 3191 3190 3189 3186 3186 3186 3186 3186 3187 3184 3183 3181 3179 3180 3179 3178 3178 3178 3177 3176 3175 3174 3174 3173 3172 3170 3168 3167 3164 3163 3161 3158 3156 3154 3152 3151 3150 3149 3148
3190 3189 3190 3190 3190 3190 3189 3187 3187 3188 3188 3187 3185 3185 3183 3181 3181 3179 3178 3177 3177 3176 3176 3175 3174 3173 3172 3170 3170 3168 3167 3164 3161 3158 3156 3154 3152 3150 3148 3147 3145 3144 3143 3142
3189 3189 3189 3188 3189 3190 3189 3189 3189 3192 3191 3187 3184 3183 3182 3181 3179 3178 3177 3176 3175 3175 3174 3173 3172 3171 3169 3167 3165 3162 3160 3157 3153 3150 3149 3147 3145 3144 3143 3142 3139 3138 3137 3136
3188 3187 3187 3188 3188 3190 3189 3190 3191 3190 3190 3189 3183 3183 3181 3180 3179 3178 3177 3176 3175 3174 3172 3171 3169 3167 3166 3164 3161 3158 3153 3150 3147 3144 3142 3141 3139 3138 3137 3135 3133 3132 3131 3130
3185 3186 3185 3187 3188 3188 3189 3190 3191 3190 3192 3190 3182 3181 3181 3179 3179 3178 3177 3175 3173 3171 3169 3167 3165 3162 3160 3157 3154 3150 3146 3143 3140 3139 3137 3135 3134 3132 3131 3129 3128 3126 3125 3123
3182 3184 3186 3186 3186 3186 3188 3188 3189 3190 3191 3191 3190 3181 3179 3178 3178 3177 3175 3172 3170 3168 3166 3162 3160 3157 3154 3150 3148 3144 3141 3138 3136 3135 3133 3131 3129 3126 3125 3123 3121 3119 3118 3117
3181 3182 3183 3184 3184 3185 3185 3186 3187 3189 3191 3190 3190 3180 3176 3177 3176 3174 3171 3168 3167 3164 3161 3158 3155 3152 3149 3144 3142 3139 3136 3134 3132 3130 3128 3126 3123 3120 3118 3115 3113 3111 3110 3111
3178 3179 3181 3181 3183 3181 3181 3183 3184 3185 3187 3185 3187 3175 3173 3173 3172 3170 3166 3164 3161 3158 3155 3152 3149 3146 3142 3138 3136 3133 3131 3130 3128 3126 3123 3120 3118 3115 3112 3109 3107 3105 3104 3103
3175 3175 3176 3178 3178 3178 3179 3180 3181 3182 3182 3178 3172 3168 3171 3170 3168 3165 3162 3160 3158 3155 3151 3148 3145 3142 3138 3134 3131 3128 3126 3124 3122 3120 3118 3115 3113 3109 3106 3105 3102 3100 3098 3096
3171 3171 3173 3174 3175 3174 3174 3174 3173 3172 3173 3172 3166 3164 3164 3165 3162 3160 3158 3157 3154 3150 3147 3143 3140 3136 3132 3128 3125 3123 3121 3120 3118 3116 3113 3111 3108 3105 3103 3100 3098 3096 3093 3091
3167 3168 3168 3169 3170 3171 3168 3167 3167 3165 3162 3161 3161 3158 3162 3159 3157 3156 3154 3152 3149 3146 3142 3138 3135 3131 3127 3123 3119 3118 3116 3115 3113 3111 3109 3106 3104 3101 3098 3095 3093 3091 3089 3087
3163 3164 3165 3165 3165 3165 3163 3158 3158 3156 3155 3155 3154 3154 3155 3152 3151 3150 3149 3147 3144 3141 3138 3134 3130 3125 3121 3118 3115 3113 3111 3110 3108 3106 3104 3101 3099 3096 3093 3090 3087 3085 3083 3080
3156 3159 3161 3162 3162 3161 3152 3152 3152 3149 3150 3150 3148 3148 3148 3146 3146 3146 3144 3141 3138 3135 3132 3128 3124 3121 3117 3113 3111 3109 3107 3105 3103 3101 3098 3095 3093 3090 3087 3085 3081 3079 3076 3074
3151 3153 3154 3156 3154 3149 3146 3147 3148 3146 3146 3145 3143 3144 3143 3141 3139 3140 3137 3135 3132 3129 3125 3122 3118 3115 3112 3109 3106 3104 3101 3099 3098 3095 3092 3090 3086 3084 3081 3078 3075 3072 3069 3067
3143 3145 3148 3149 3147 3142 3139 3141 3140 3141 3135 3141 3138 3139 3138 3137 3133 3133 3129 3127 3125 3121 3118 3115 3111 3108 3105 3102 3100 3098 3095 3093 3091 3089 3086 3082 3080 3076 3073 3070 3068 3065 3061 3058
3132 3136 3136 3139 3138 3129 3132 3136 3137 3138 3133 3133 3134 3133 3131 3130 3129 3127 3123 3120 3117 3113 3110 3106 3103 3099 3097 3094 3091 3090 3088 3086 3084 3080 3078 3075 3071 3068 3065 3062 3059 3055 3051 3047
3122 3126 3127 3134 3133 3123 3124 3126 3128 3128 3125 3127 3127 3127 3124 3122 3120 3117 3115 3112 3108 3105 3101 3098 3093 3091 3089 3086 3082 3081 3079 3079 3074 3071 3068 3065 3063 3060 3057 3053 3051 3047 3042 3037
3115 3114 3117 3117 3112 3116 3115 3117 3119 3120 3121 3122 3120 3120 3118 3115 3111 3108 3104 3101 3098 3094 3091 3088 3083 3079 3080 3077 3073 3070 3070 3067 3064 3059 3058 3055 3052 3049 3045 3042 3039 3036 3032 3027
3104 3106 3105 3107 3104 3107 3109 3110 3111 3112 3113 3114 3112 3110 3108 3105 3102 3097 3093 3090 3086 3082 3078 3076 3072 3068 3065 3067 3063 3058 3058 3056 3053 3048 3047 3045 3041 3038 3035 3030 3029 3025 3022 3016
3095 3098 3097 3093 3095 3100 3098 3100 3102 3103 3101 3100 3100 3099 3097 3093 3089 3086 3081 3077 3073 3068 3064 3061 3058 3055 3052 3050 3049 3046 3043 3041 3038 3035 3033 3031 3028 3025 3022 3019 3015 3014 3010 3005
3081 3083 3084 3081 3087 3089 3090 3095 3089 3089 3087 3086 3086 3083 3081 3080 3076 3072 3067 3064 3059 3054 3051 3046 3044 3042 3040 3037 3034 3032 3031 3027 3024 3020 3018 3016 3013 3011 3008 3007 3006 3003 2999 2996